Temp
8 8 8 9 9 9 9 9 9 8 8 8 8 8 8 7 7 6 6 5 5 5 5 5 4 4 4 4 4 5 5 5 5 5 5 5 5 5 4 4 4 4 4
8 8 8 8 8 8 8 8 8 8 8 7 7 7 7 7 6 6 6 5 5 5 5 5 4 4 5 4 4 4 5 5 5 5 5 5 5 5 5 4 4 4 4
8 8 8 8 8 8 8 8 7 7 7 6 6 6 6 5 5 5 5 5 5 5 5 5 5 5 5 5 5 5 5 5 5 5 5 5 5 5 5 5 4 4 4
8 8 8 8 7 7 7 7 7 6 6 5 5 5 5 5 5 5 5 5 5 5 5 5 5 5 5 5 5 5 5 5 5 5 5 5 5 5 5 5 5 5 4
7 7 7 7 7 6 6 6 5 5 5 4 4 4 4 4 5 5 5 5 4 4 5 5 5 5 5 5 5 5 5 5 5 5 5 5 5 5 5 5 5 5 4
7 7 6 6 6 6 6 5 5 5 5 4 4 4 4 4 4 4 4 4 4 4 4 4 5 4 4 4 4 4 4 4 5 5 5 5 5 5 4 4 4 4 4
6 5 5 5 5 5 5 5 5 5 5 4 4 4 4 4 4 3 4 4 4 4 4 4 4 4 4 4 4 4 4 4 4 4 4 4 3 3 3 4 4 4 4
5 5 5 4 4 4 4 4 4 4 4 4 3 3 3 4 3 3 3 3 3 3 3 3 3 3 3 3 3 3 4 4 4 3 3 3 3 3 3 3 3 3 3
5 4 4 4 4 4 4 4 4 4 4 4 4 3 3 3 3 3 3 3 3 3 3 3 3 3 3 3 3 3 3 3 3 3 3 3 3 3 3 3 3 3 3
4 4 4 3 3 4 4 4 3 4 3 3 4 3 3 3 3 3 3 3 3 3 3 3 3 3 3 3 3 3 3 3 3 3 3 3 3 2 3 3 3 2 2
4 4 3 3 3 3 3 3 3 3 3 3 3 3 4 3 3 3 3 3 3 3 3 3 3 3 3 3 3 3 3 3 3 3 2 3 2 2 3 2 2 2 2
4 4 4 3 3 3 3 3 3 3 3 3 3 3 3 3 3 3 3 2 2 3 3 3 3 3 3 3 2 3 3 3 3 2 2 3 2 2 2 2 1 1 0
4 4 3 3 3 2 3 2 3 3 3 3 3 3 3 3 3 3 3 3 2 2 3 3 3 3 3 3 3 2 3 2 3 2 2 2 2 1 1 1 1 0 0
3 3 3 3 3 2 2 2 2 2 2 2 2 2 2 2 2 3 3 3 2 2 2 2 2 3 3 3 3 3 2 3 2 2 2 2 2 1 1 1 -1 0 0
3 3 3 2 2 2 2 2 2 2 2 2 2 2 2 2 2 2 2 2 2 3 2 2 2 2 3 3 2 3 2 2 2 2 2 2 2 1 1 1 0 0 0
3 2 2 2 2 2 2 2 2 2 2 2 2 2 2 2 2 2 2 2 2 2 3 1 2 2 2 2 2 2 3 2 2 2 2 2 2 2 1 1 1 0 0
2 2 2 2 2 2 2 2 1 2 2 2 2 2 1 2 1 1 1 1 1 2 2 2 2 2 2 2 2 2 2 2 2 2 2 2 2 2 1 1 1 1 0
2 2 2 1 1 1 1 1 1 1 2 2 1 2 1 1 1 1 1 1 1 1 1 2 1 2 2 2 2 2 2 2 2 2 1 1 1 1 1 1 1 1 1
2 1 1 1 1 1 1 1 1 1 1 1 1 1 1 1 1 1 1 1 1 1 1 1 1 1 1 2 2 2 2 2 2 2 2 1 1 1 1 1 1 1 0
1 1 1 1 1 1 1 0 0 0 1 1 0 1 1 1 0 0 1 0 0 1 0 1 1 1 1 1 1 1 1 2 2 2 1 1 1 1 0 0 1 1 0
0 0 -0 0 0 0 0 0 0 0 -0 -0 -0 -0 -0 -0 -0 -0 -0 -0 0 0 0 0 1 0 0 0 1 1 1 1 1 2 1 1 1 1 1 0 -0 0 0
-1 -1 -1 -0 -1 -1 -1 -1 -0 -0 -1 -0 -1 -1 -1 -1 -1 -1 -1 -1 -1 -0 0 -0 -0 0 -0 -0 0 1 0 0 0 0 1 1 1 1 0 0 -0 -1 -1
-2 -1 -1 -1 -1 -1 -1 -1 -1 -1 -1 -1 -1 -1 -1 -2 -2 -2 -2 -1 -1 -1 -1 -1 -0 -1 -1 -1 -0 -0 -0 0 -0 -0 0 -0 0 0 0 -0 -0 -1 -1
-2 -2 -2 -2 -2 -2 -2 -2 -2 -2 -2 -2 -2 -2 -2 -2 -2 -2 -2 -2 -2 -2 -2 -2 -2 -2 -2 -2 -2 -1 -1 -1 -1 -1 -1 0 -1 -1 -0 -0 -1 -1 -1
-3 -4 -4 -4 -3 -4 -3 -3 -3 -3 -3 -3 -3 -2 -3 -3 -3 -3 -3 -3 -3 -3 -3 -3 -2 -2 -2 -3 -3 -2 -2 -2 -1 -1 -2 -0 -2 -2 -1 -1 -1 -1 -2
-5 -5 -5 -4 -4 -4 -4 -4 -4 -4 -4 -4 -4 -4 -4 -4 -4 -4 -4 -4 -4 -3 -3 -3 -3 -3 -3 -3 -3 -3 -3 -2 -2 -1 -2 -2 -2 -2 -2 -3 -3 -3 -3
Height
3167 3164 3161 3157 3153 3149 3145 3142 3138 3134 3131 3127 3123 3119 3115 3112 3109 3106 3105 3103 3101 3101 3102 3101 3101 3099 3099 3099 3099 3100 3101 3102 3103 3104 3105 3106 3108 3108 3109 3110 3111 3111 3112
3163 3160 3157 3152 3148 3144 3140 3136 3132 3128 3125 3121 3117 3113 3109 3106 3103 3101 3099 3098 3097 3096 3096 3096 3095 3094 3094 3093 3094 3094 3095 3095 3096 3097 3098 3099 3100 3102 3103 3104 3104 3105 3106
3159 3156 3152 3148 3143 3139 3135 3130 3127 3122 3119 3116 3112 3108 3105 3102 3100 3097 3096 3095 3093 3092 3092 3092 3091 3090 3090 3090 3090 3089 3089 3090 3090 3091 3091 3092 3092 3093 3094 3095 3096 3098 3099
3155 3151 3147 3143 3139 3134 3130 3126 3123 3118 3115 3111 3108 3104 3102 3099 3098 3096 3095 3093 3091 3090 3089 3088 3087 3087 3086 3086 3085 3085 3085 3085 3085 3085 3084 3084 3084 3084 3085 3085 3086 3087 3089
3150 3146 3142 3138 3134 3129 3125 3122 3118 3114 3112 3107 3104 3102 3100 3098 3096 3095 3093 3091 3089 3088 3087 3086 3085 3084 3084 3083 3082 3081 3080 3080 3079 3079 3078 3078 3077 3077 3077 3077 3077 3077 3078
3146 3142 3138 3134 3129 3125 3121 3118 3114 3110 3108 3104 3102 3099 3098 3096 3095 3093 3091 3090 3088 3086 3085 3083 3083 3082 3082 3081 3079 3078 3077 3076 3075 3074 3074 3073 3072 3072 3071 3070 3069 3069 3069
3141 3138 3134 3130 3126 3122 3119 3115 3111 3108 3105 3103 3100 3098 3096 3095 3094 3092 3090 3089 3087 3085 3083 3083 3081 3080 3079 3079 3077 3076 3074 3072 3071 3071 3069 3069 3067 3066 3065 3063 3061 3060 3058
3138 3134 3131 3127 3123 3119 3116 3112 3108 3106 3104 3102 3099 3097 3095 3095 3093 3091 3089 3088 3086 3084 3083 3081 3080 3079 3078 3076 3075 3074 3072 3071 3068 3067 3066 3064 3061 3059 3057 3054 3052 3049 3048
3134 3130 3126 3123 3120 3117 3113 3110 3107 3105 3102 3099 3099 3097 3094 3093 3091 3090 3088 3086 3084 3083 3082 3081 3079 3078 3076 3075 3073 3072 3070 3068 3066 3064 3061 3058 3056 3054 3050 3045 3041 3036 3034
3129 3126 3122 3120 3118 3114 3111 3108 3105 3102 3100 3098 3096 3095 3093 3092 3090 3089 3087 3085 3084 3081 3080 3079 3078 3077 3075 3072 3070 3069 3068 3066 3063 3060 3057 3055 3053 3047 3043 3039 3035 3027 3024
3124 3122 3119 3116 3114 3111 3108 3106 3103 3100 3098 3097 3095 3093 3091 3089 3088 3086 3085 3083 3082 3080 3078 3078 3076 3075 3074 3071 3068 3066 3065 3063 3060 3057 3054 3052 3048 3044 3040 3033 3029 3024 3021
3119 3116 3115 3112 3110 3108 3106 3103 3100 3097 3096 3094 3092 3091 3089 3088 3085 3084 3083 3081 3079 3078 3076 3075 3074 3074 3072 3069 3066 3064 3063 3061 3058 3054 3052 3049 3046 3043 3037 3032 3026 3022 3018
3114 3112 3110 3108 3106 3104 3102 3099 3098 3095 3093 3091 3089 3088 3087 3085 3084 3082 3081 3080 3077 3075 3073 3073 3071 3070 3069 3067 3064 3062 3061 3059 3055 3052 3050 3047 3044 3041 3037 3031 3028 3024 3020
3110 3108 3105 3104 3102 3099 3097 3094 3092 3092 3090 3088 3086 3085 3083 3082 3080 3079 3078 3077 3076 3073 3071 3070 3068 3067 3066 3064 3062 3060 3058 3055 3053 3049 3047 3045 3041 3039 3036 3032 3029 3027 3024
3105 3102 3100 3098 3096 3094 3092 3091 3088 3086 3086 3084 3083 3081 3080 3078 3076 3075 3074 3073 3072 3071 3069 3067 3066 3064 3063 3061 3059 3057 3055 3052 3050 3047 3044 3042 3039 3037 3035 3033 3030 3028 3026
3099 3097 3094 3092 3090 3088 3087 3086 3084 3081 3080 3079 3078 3076 3075 3073 3072 3070 3069 3068 3067 3066 3065 3064 3062 3060 3058 3056 3055 3054 3052 3049 3047 3045 3042 3039 3036 3035 3033 3032 3030 3028 3028
3093 3091 3089 3087 3084 3082 3081 3080 3078 3076 3074 3073 3072 3070 3069 3068 3068 3066 3064 3063 3062 3060 3059 3060 3057 3056 3055 3053 3051 3049 3048 3046 3044 3043 3039 3036 3034 3032 3031 3030 3029 3027 3025
3088 3086 3083 3081 3079 3076 3074 3073 3071 3070 3068 3066 3065 3064 3062 3061 3062 3060 3059 3058 3057 3055 3054 3054 3052 3049 3048 3047 3046 3045 3044 3042 3040 3038 3037 3034 3031 3030 3028 3026 3026 3025 3024
3082 3079 3077 3074 3072 3070 3068 3066 3064 3063 3062 3060 3059 3057 3055 3054 3054 3053 3051 3051 3050 3048 3047 3046 3047 3045 3043 3041 3041 3039 3038 3037 3036 3034 3032 3031 3029 3026 3025 3023 3022 3022 3021
3076 3073 3070 3068 3065 3063 3061 3059 3057 3055 3054 3053 3051 3050 3048 3046 3045 3044 3044 3043 3042 3041 3040 3038 3038 3038 3036 3035 3033 3033 3032 3031 3030 3029 3027 3026 3024 3023 3020 3019 3018 3018 3018
3069 3066 3064 3061 3059 3056 3054 3052 3050 3048 3046 3045 3043 3041 3040 3039 3037 3036 3035 3034 3033 3033 3032 3031 3030 3029 3029 3027 3025 3025 3025 3024 3023 3023 3022 3021 3019 3018 3017 3015 3014 3014 3014
3063 3060 3058 3055 3052 3050 3048 3045 3043 3041 3038 3036 3034 3032 3031 3030 3028 3027 3026 3025 3025 3023 3022 3021 3021 3021 3021 3019 3017 3016 3016 3016 3017 3014 3015 3014 3014 3012 3011 3010 3009 3009 3009
3058 3055 3053 3050 3047 3044 3042 3039 3036 3033 3031 3028 3026 3024 3022 3021 3019 3018 3017 3016 3015 3013 3012 3011 3010 3011 3010 3008 3008 3007 3006 3006 3007 3006 3006 3007 3005 3006 3005 3004 3003 3003 3002
3051 3049 3046 3043 3040 3037 3034 3031 3028 3026 3023 3021 3018 3015 3014 3012 3009 3008 3007 3007 3006 3005 3003 3001 3000 3001 2999 2998 2997 2996 2996 2996 2997 2997 2995 2997 2997 2997 2997 2997 2997 2996 2996
3044 3041 3038 3035 3032 3028 3025 3023 3020 3018 3015 3013 3010 3007 3005 3004 3001 2998 2998 2997 2996 2995 2991 2990 2991 2991 2990 2989 2987 2985 2987 2985 2986 2987 2985 2985 2988 2988 2988 2988 2988 2989 2989
3036 3033 3031 3026 3023 3021 3018 3015 3012 3010 3008 3005 3002 3000 2997 2995 2993 2990 2988 2987 2986 2985 2982 2981 2980 2980 2978 2978 2976 2975 2975 2974 2974 2975 2977 2976 2977 2976 2978 2979 2979 2979 2980
Wind_Speed
20 22 23 25 26 27 28 28 29 28 29 29 30 29 29 28 28 28 27 27 27 25 25 25 25 26 28 30 30 31 32 33 34 35 35 35 33 31 28 29 29 28 27
22 24 26 26 28 29 30 30 30 30 29 28 27 27 25 24 22 21 22 22 23 23 23 23 23 24 24 25 25 26 28 30 32 33 35 35 36 37 35 32 31 31 30
26 26 27 28 29 29 30 31 31 31 30 28 26 23 21 18 16 14 14 14 16 17 18 18 18 20 20 19 19 20 22 24 26 28 30 33 35 37 39 40 40 35 33
27 28 28 28 28 29 29 29 27 27 26 23 20 18 16 14 14 14 14 13 14 14 15 15 16 17 17 16 18 18 19 20 22 24 25 27 30 33 36 39 42 44 44
28 28 27 27 27 26 26 25 24 23 20 18 17 15 14 14 13 13 12 11 10 11 12 13 13 13 14 14 15 16 17 18 20 22 24 26 28 29 32 34 37 41 44
27 27 26 26 25 25 24 23 22 22 18 15 14 13 13 13 13 11 11 11 11 11 10 10 11 11 12 12 12 12 13 14 16 18 19 21 22 23 25 28 31 35 39
26 26 25 25 23 22 22 21 19 18 16 14 13 12 12 12 11 10 12 11 11 10 10 9 10 9 9 10 10 10 11 13 14 15 16 18 20 20 22 26 29 32 34
24 25 24 22 21 21 21 20 18 16 15 12 12 11 11 11 8 10 12 11 10 10 9 9 8 10 9 9 10 10 11 12 14 15 17 17 19 23 23 28 31 34 34
24 25 24 22 20 20 18 17 16 14 14 13 10 11 10 10 9 9 10 9 9 10 9 9 10 10 9 9 9 10 12 13 15 16 17 19 22 23 25 30 33 28 30
24 24 23 22 19 19 18 16 14 13 13 14 12 10 10 10 10 10 10 10 11 10 9 9 10 11 10 10 10 10 12 14 16 16 18 20 23 25 28 27 30 24 24
24 23 21 21 20 18 17 16 14 13 13 13 12 12 11 11 10 9 12 12 12 13 12 11 12 12 10 11 12 12 14 15 17 17 19 21 23 24 26 25 23 20 18
23 22 19 20 21 19 19 17 16 13 12 13 12 12 12 12 11 10 10 13 14 14 14 14 13 12 11 11 12 12 14 16 17 18 19 21 22 21 22 18 13 21 11
23 22 21 20 20 20 19 18 18 17 14 14 14 14 14 13 13 13 12 12 14 15 15 14 14 14 13 11 11 12 14 15 17 18 19 19 20 18 16 13 19 19 8
24 24 23 21 21 21 20 18 17 19 17 17 17 15 16 15 14 14 14 14 13 14 15 14 15 15 14 14 13 11 13 15 15 17 19 18 19 16 14 15 12 13 2
24 24 24 23 23 22 23 22 19 20 19 20 20 19 19 18 17 17 15 17 17 15 12 15 16 18 17 16 15 15 13 15 15 15 18 18 17 17 13 10 9 9 9
25 25 25 25 24 24 25 24 23 22 21 23 23 22 21 22 21 20 18 18 20 20 17 15 18 18 19 20 19 18 17 16 15 14 16 16 17 16 14 11 8 7 7
24 25 25 25 25 25 26 26 25 25 24 24 26 25 24 25 25 24 24 22 22 23 21 18 19 20 20 20 21 21 20 18 17 15 15 15 15 16 16 13 10 10 11
26 26 26 26 26 26 27 26 27 27 27 25 27 28 26 27 27 27 28 27 26 27 26 22 22 24 23 23 23 23 22 20 19 18 15 14 16 14 14 16 13 10 11
26 27 26 26 26 27 27 27 28 28 29 28 29 29 28 30 30 31 29 28 29 30 31 30 24 26 26 26 25 26 25 23 21 20 19 17 15 15 15 15 15 14 12
24 25 26 26 27 27 28 28 28 28 29 30 30 31 30 30 32 33 33 32 32 33 33 33 31 29 29 29 29 28 26 27 25 22 21 20 19 17 17 16 16 15 14
24 24 23 24 25 26 27 27 28 28 28 29 30 30 31 32 33 34 35 34 35 36 36 36 35 34 31 31 33 31 29 28 28 25 23 23 22 20 19 19 18 16 16
23 23 24 24 25 25 26 27 28 28 29 29 30 31 31 31 33 34 34 35 35 37 37 38 37 37 34 34 36 36 33 31 29 29 26 26 24 23 22 22 20 20 18
24 25 26 26 27 28 27 27 28 28 29 30 31 32 31 31 33 33 34 34 35 36 37 38 38 36 36 36 36 37 36 34 31 30 31 26 28 25 25 23 22 21 22
27 29 30 30 31 32 31 31 30 29 29 30 31 33 33 32 33 34 34 34 34 35 37 38 37 36 36 36 36 37 37 36 34 32 33 32 28 27 27 25 24 23 23
30 31 32 32 31 31 31 31 31 31 30 30 31 33 33 32 33 35 34 34 33 33 36 37 37 37 37 36 36 38 36 37 36 33 35 35 28 28 28 27 26 25 25
33 33 32 34 34 32 33 33 32 31 29 29 29 30 32 31 31 33 34 34 33 33 36 36 36 35 36 36 37 37 36 37 38 37 32 34 31 30 28 27 27 27 27
Wind_Direction
315 316 315 314 314 313 312 309 307 306 305 304 302 301 298 293 289 284 279 275 276 273 270 270 266 261 260 259 258 258 256 255 254 255 257 256 254 256 256 258 260 261 262
318 317 316 316 315 313 311 310 308 307 305 305 304 302 300 296 291 283 277 274 273 276 275 273 270 266 264 262 262 258 257 256 256 257 257 257 256 255 254 255 254 255 256
320 318 318 318 315 313 313 312 312 309 308 310 308 305 303 303 301 294 285 279 278 278 280 280 277 274 273 274 272 267 264 264 264 264 263 262 260 258 256 255 254 255 253
319 321 320 319 318 317 317 315 313 312 314 313 311 306 304 305 306 305 300 293 287 286 283 282 281 280 279 278 276 279 275 274 272 270 268 266 264 262 260 258 256 253 251
320 320 321 321 322 321 321 321 319 318 319 317 315 312 313 311 308 308 303 301 300 298 298 295 291 289 289 286 282 281 281 278 275 273 272 268 268 267 266 263 261 259 255
318 321 323 324 327 327 325 325 324 323 327 320 315 314 315 310 310 312 303 301 303 303 303 303 304 305 299 297 295 292 290 287 284 281 278 275 273 273 274 273 270 267 263
320 322 324 326 327 327 325 324 325 325 327 321 318 317 312 311 318 309 304 306 305 306 306 313 313 306 309 311 313 312 312 307 301 296 292 293 289 285 283 281 279 272 265
316 317 321 325 327 325 323 325 327 325 318 321 319 314 313 314 309 304 304 308 308 308 308 308 309 310 315 320 320 321 318 318 315 309 306 299 302 305 300 296 292 283 269
313 315 318 322 320 318 320 320 320 319 321 323 322 317 311 305 304 300 299 302 304 308 317 316 313 310 312 313 315 325 329 328 325 328 318 310 312 309 309 311 309 297 280
309 309 310 313 312 313 316 313 311 316 323 320 320 315 311 307 305 303 301 302 304 308 310 316 310 308 310 316 322 334 332 327 330 331 330 324 318 320 317 312 315 321 306
307 303 302 305 306 308 309 306 305 312 314 319 323 321 308 300 297 298 300 299 300 302 304 310 303 307 313 317 325 338 331 324 326 330 331 328 332 329 325 326 342 317 300
306 305 299 300 300 301 301 301 298 299 303 308 311 308 309 303 296 289 284 288 293 294 300 304 309 309 311 316 321 329 324 324 325 328 327 328 335 336 342 0 5 355 302
305 306 300 295 291 292 295 297 296 293 291 292 297 303 303 304 304 302 295 287 287 293 299 306 309 312 314 315 319 321 318 319 323 324 323 328 334 340 347 349 352 354 341
302 302 301 297 290 287 290 288 288 288 286 284 287 289 292 294 296 299 299 293 288 292 299 306 307 308 311 313 320 320 316 318 321 319 319 325 329 339 340 344 347 354 342
301 301 300 298 296 292 290 293 290 285 284 282 280 281 283 286 288 288 291 293 291 287 293 301 301 303 308 311 317 320 323 318 320 316 315 320 325 329 336 335 335 348 4
299 300 300 299 296 294 289 289 290 286 282 280 278 278 278 279 281 281 282 284 288 290 291 295 295 299 303 309 311 312 317 319 318 316 311 313 317 320 323 327 312 305 288
300 301 299 300 297 293 288 287 284 283 283 279 277 275 276 276 277 279 280 279 279 281 283 285 288 291 296 298 302 306 310 313 315 316 312 309 307 308 311 312 306 289 279
298 297 297 295 294 295 291 285 281 280 279 278 277 276 275 275 275 275 277 279 280 281 281 278 283 287 289 292 295 297 299 301 306 310 312 308 304 301 299 301 303 292 276
299 297 294 293 292 291 292 290 286 281 280 278 276 276 275 274 274 272 270 272 275 277 279 280 277 279 283 285 288 291 292 293 297 302 305 306 302 298 294 289 290 292 286
300 300 301 299 295 291 288 288 288 286 284 282 281 280 278 276 273 271 272 273 271 272 275 277 278 279 280 282 284 285 288 290 290 292 296 298 300 300 294 288 284 282 284
303 303 302 300 298 295 292 289 287 286 285 284 283 279 278 277 275 274 272 271 272 274 274 276 277 278 280 280 280 281 283 284 284 283 286 289 294 294 291 288 285 279 273
305 305 304 303 302 300 300 297 293 290 287 284 282 281 280 278 276 276 275 275 274 274 274 276 277 279 280 280 281 282 283 282 282 282 282 284 283 286 286 283 280 278 273
306 306 306 306 305 304 303 301 298 295 291 286 283 280 279 278 277 275 274 274 275 275 276 276 277 280 279 279 279 279 280 280 281 282 281 279 281 280 280 278 276 274 274
305 305 304 304 303 301 300 298 296 294 293 291 289 285 282 279 277 275 274 274 275 276 276 276 276 275 275 275 277 277 277 278 277 277 277 277 275 277 275 272 271 268 267
301 302 303 302 301 300 299 297 296 295 293 292 290 289 289 287 283 280 278 274 271 271 271 272 273 275 277 276 275 275 276 276 275 274 275 275 274 271 271 269 267 263 260
303 304 304 303 302 300 299 297 296 294 293 291 290 290 290 290 289 287 285 282 278 272 270 271 273 272 270 272 273 273 272 273 273 272 271 273 272 269 265 263 263 261 258